Gulfport, MS

7:04 PM CDT on May 25, 2017 (GMT -0500)
Gulfport-Biloxi Regional

Weather History for KGPT - October, 2012

Change the Weather History Date:

Tuesday, October 2, 2012

  Actual Average Record
Temperature  
Mean Temperature 69 °F -  
Max Temperature 79 °F 83 °F 93 °F (1977)
Min Temperature 61 °F 62 °F 44 °F (1984)
Cooling Degree Days 4    
Growing Degree Days 19 (Base 50)    
Moisture  
Dew Point 60 °F    
Average Humidity 79    
Maximum Humidity 94    
Minimum Humidity 48    
Precipitation  
Precipitation 0.00 in - - ()
Sea Level Pressure  
Sea Level Pressure 29.85 in    
Wind  
Wind Speed 6 mph (WNW)    
Max Wind Speed 12 mph    
Max Gust Speed 18 mph    
Visibility 9 miles    
Events      
Averages and records for this station are not official NWS values.
T = Trace of Precipitation, MM = Missing Value Source: NWS Daily Summary

Daily Weather History Graph

Daily Weather History Graph

Search for Another Location

Airport or City:

Trip Planner

Search our weather history database for the weather conditions in past years. The results will help you decide how hot, cold, wet, or windy it might be!

Date:

Astronomy

Oct. 02, 2012 Rise Set
Actual Time 6:50 AM CDT 6:39 PM CDT
Civil Twilight 6:26 AM CDT 7:03 PM CDT
Nautical Twilight 5:58 AM CDT 7:31 PM CDT
Astronomical Twilight 5:30 AM CDT 7:59 PM CDT
Moon 8:07 PM CDT (10/2) 9:04 AM CDT (10/2)
Length of Visible Light 12h 37m
Length of Day
11h 49m
Waning Gibbous, 94% of the Moon is Illuminated
Oct 2
Waning Gibbous
Oct 8
Last Quarter
Oct 15
New
Oct 21
First Quarter
Oct 29
Full

Hourly Weather History & Observations

Time (CDT) Temp. Dew Point Humidity Pressure Visibility Wind Dir Wind Speed Gust Speed Precip Events Conditions
12:45 AM 64.4 °F 60.8 °F 88% 29.75 in 10.0 mi WNW 6.9 mph - N/A   Overcast
12:53 AM 64.0 °F 60.1 °F 87% 29.75 in 10.0 mi WNW 5.8 mph - N/A   Overcast
1:08 AM 64.4 °F 60.8 °F 88% 29.75 in 10.0 mi West 4.6 mph - N/A   Overcast
1:35 AM 64.4 °F 60.8 °F 88% 29.75 in 10.0 mi WNW 6.9 mph - N/A   Overcast
1:53 AM 64.0 °F 60.1 °F 87% 29.75 in 10.0 mi WNW 6.9 mph - N/A   Overcast
2:53 AM 64.0 °F 60.1 °F 87% 29.76 in 10.0 mi WNW 5.8 mph - N/A   Overcast
3:23 AM 64.4 °F 60.8 °F 88% 29.76 in 10.0 mi WNW 5.8 mph - N/A   Overcast
3:51 AM 62.6 °F 60.8 °F 94% 29.77 in 10.0 mi West 4.6 mph - N/A   Scattered Clouds
3:53 AM 63.0 °F 60.1 °F 90% 29.77 in 10.0 mi West 4.6 mph - N/A   Partly Cloudy
4:53 AM 62.1 °F 60.1 °F 93% 29.79 in 7.0 mi West 3.5 mph - N/A   Clear
5:53 AM 61.0 °F 59.0 °F 93% 29.81 in 8.0 mi WNW 5.8 mph - N/A   Clear
6:53 AM 61.0 °F 59.0 °F 93% 29.83 in 5.0 mi NW 6.9 mph - N/A   Clear
7:53 AM 62.1 °F 60.1 °F 93% 29.86 in 6.0 mi WNW 5.8 mph - N/A   Clear
8:53 AM 66.9 °F 60.1 °F 79% 29.86 in 10.0 mi NW 6.9 mph - N/A   Clear
9:53 AM 70.0 °F 57.0 °F 63% 29.89 in 10.0 mi NNW 6.9 mph - N/A   Clear
10:53 AM 73.0 °F 57.0 °F 57% 29.90 in 10.0 mi WNW 11.5 mph - N/A   Clear
11:53 AM 75.0 °F 59.0 °F 57% 29.90 in 10.0 mi NW 8.1 mph 16.1 mph N/A   Partly Cloudy
12:53 PM 75.9 °F 57.9 °F 54% 29.89 in 10.0 mi NW 10.4 mph 18.4 mph N/A   Scattered Clouds
1:53 PM 77.0 °F 55.9 °F 48% 29.88 in 10.0 mi NW 8.1 mph - N/A   Scattered Clouds
2:53 PM 75.9 °F 61.0 °F 60% 29.88 in 10.0 mi South 5.8 mph - N/A   Scattered Clouds
3:53 PM 75.0 °F 60.1 °F 60% 29.88 in 10.0 mi South 4.6 mph - N/A   Scattered Clouds
4:53 PM 75.9 °F 60.1 °F 58% 29.88 in 10.0 mi South 8.1 mph - N/A   Partly Cloudy
5:53 PM 73.0 °F 59.0 °F 61% 29.88 in 10.0 mi South 3.5 mph - N/A   Mostly Cloudy
6:53 PM 69.8 °F 60.8 °F 73% 29.90 in 10.0 mi Calm Calm - N/A   Clear
7:53 PM 68.0 °F 63.0 °F 84% 29.92 in 10.0 mi Calm Calm - N/A   Clear
8:53 PM 66.2 °F 62.6 °F 88% 29.95 in 10.0 mi Calm Calm - N/A   Clear
9:53 PM 64.9 °F 62.1 °F 90% 29.97 in 10.0 mi Calm Calm - N/A   Clear
10:53 PM 64.9 °F 62.1 °F 90% 29.99 in 9.0 mi Calm Calm - N/A   Clear
11:53 PM 64.0 °F 61.0 °F 90% 30.00 in 7.0 mi Calm Calm - N/A   Clear